Погода в Боготе

Колумбия     4°37′52″N   74°06′27″W
темп.,
°C
ветер,
м/с
пор.,
м/с
влажн.,
%
обл.,
%
осадки,
мм/ч
давл.,
гПа
погр.,
м
18 сентября, сб
сб1801:00+7вюв11915 0.0 102041
04:00+7в118639 0.0 101924
07:00+10вюв127212 0.0 1020119
10:00+18ю244034 0.0 10161790
13:00+16ю235488 0.1 10141175
16:00+15ююв127455 2.1 1013762
19:00+10юв119391 3.3 101731
22:00+9вюв11955 0.2 102040
19 сентября, вс
вс1901:00+8в119520 0.3 101915
04:00+8всв119554 0.0 101816
07:00+10всв11895 0.0 101991
10:00+18юз135358 0.2 10161538
13:00+14юз2375100 1.3 1014288
16:00+14ю127972 2.2 1012596
19:00+11юв239380 4.1 1016141
22:00+9юв119673 0.1 101943
20 сентября, пн
пн2001:00+8в1195100 0.1 101818
04:00+7в119367 0.0 101818
07:00+9вюв118530 0.0 101993
10:00+17ю126083 0.3 10161297
13:00+17ю236478 1.9 10131365
16:00+15ююв237568 2.3 1012897
19:00+10юв239589 3.4 1017152
22:00+9вюв119596 0.0 102045
21 сентября, вт
вт2101:00+8в1195100 0.0 101826
04:00+7в1193100 0.0 101817
07:00+10вюв118768 0.0 101998
10:00+17ю1360100 0.3 10171446
13:00+15ююв237270 2.4 1014900
16:00+13ююв238485 2.1 1014400
19:00+11юв119199 2.5 101646
22:00+11вюв1192100 0.1 101888
22 сентября, ср
ср2201:00+9вюв1195100 0.1 101815
04:00+10юв1193100 0.1 101763
07:00+10юв1289100 0.1 1019169
10:00+15ююв236799 0.3 10171074
13:00+16ююв336564 1.8 10131256
16:00+14ююв237765 2.2 1013840
19:00+11вюв239175 2.9 1017155
22:00+9в119444 0.0 101934